• Processing (Info)

  • MPEC 2002-M24 : 2001 CD32

    The following Minor Planet Electronic Circular may be linked-to from your own Web pages, but must not otherwise be redistributed electronically.

    A form allowing access to any MPEC is at the bottom of this page.


    Read MPEC 2002-M23 Read MPEC 2002-M25


    M.P.E.C. 2002-M24                                Issued 2002 June 22, 20:47 UT
    
         The Minor Planet Electronic Circulars contain information on unusual
             minor planets and routine data on comets.  They are published
       on behalf of Commission 20 of the International Astronomical Union by the
              Minor Planet Center, Smithsonian Astrophysical Observatory,
                              Cambridge, MA 02138, U.S.A.
    
                 Prepared using the Tamkin Foundation Computer Network
    
                                  MPC@CFA.HARVARD.EDU
              URL http://cfa-www.harvard.edu/iau/mpc.html  ISSN 1523-6714
    
                                       2001 CD32
    
                               Revision to MPEC 2001-C36
    
    Observations:
         K01C32D 1C2002 06 05.80184 23 01 59.03 -42 38 16.4                      413
         K01C32D 1C2002 06 05.80623 23 01 59.06 -42 38 16.4                      413
         K01C32D 1C2002 06 05.81904 23 01 59.12 -42 38 16.4          20.2 R      413
         K01C32D 1C2002 06 22.71215 22 57 12.80 -42 58 24.2                      413
         K01C32D 1C2002 06 22.71536 22 57 12.69 -42 58 24.5                      413
         K01C32D 1C2002 06 22.71858 22 57 12.52 -42 58 24.8          19.7 R      413
    
    Observer details:
    413 Siding Spring.  Observers G. J. Garradd, R. H. McNaught.  1.0-m f/8
        reflector + CCD.
    
    First and last observations above in comparison with prediction:
    Residuals in seconds of arc, reference and Delta-T
    020605 413  6.8- 29.4-    020622 413  9.4- 34.3-    MPO 14418   +0.043 day
    
    Orbital elements:
    2001 CD32
    Epoch 2002 May 6.0 TT = JDT 2452400.5                   MPC
    M 200.03505              (2000.0)            P               Q
    n   0.40494400     Peri.  125.64094     -0.15031713     -0.87225036
    a   1.8094201      Node   322.79288     +0.45367193     +0.35738744
    e   0.2554828      Incl.   50.31951     +0.87839999     -0.33384657
    P   2.43           H   16.4           G   0.15           U   2
    Residuals in seconds of arc
    010212 704  0.1-  0.8+    010214 557  0.1-  0.2-    010217 118  0.1+  0.5+
    010212 704  0.2-  0.2+    010214 557  0.3-  0.1+    010218 912  0.1-  0.3-
    010212 704  0.4-  0.2+    010214 557  0.1+  0.2-    010218 912  0.1-  0.6-
    010212 704  0.0   0.1+    010214 046  0.1-  0.2-    010224 118  0.1+  0.0
    010212 704  0.3-  0.2+    010214 046  0.1-  0.1-    010224 118  0.0   0.0
    010212 557  0.1+  0.2-    010214 046  0.2+  0.1-    010225 118  0.2+  0.1+
    010212 557  0.0   0.1+    010214 046  0.2-  0.4-    010225 118  0.1-  0.0
    010212 557  0.3+  0.6+    010214 046  0.2+  0.1+    010304 704  0.8+  0.1-
    010213 704  0.1-  0.3-    010214 118  0.3+  0.7+    010304 704  0.5-  0.1-
    010213 704  0.1+  0.2+    010214 118  0.0   0.1+    010304 704  0.6-  0.3+
    010213 704  0.0   0.2-    010214 118  0.0   0.3+    010304 704  1.0-  0.5+
    010213 704  0.1-  0.2-    010214 151  0.1-  0.0     010304 704  0.8-  0.4+
    010213 704  0.2+  0.1+    010214 151  0.0   0.0     010411 413  0.4-  0.1-
    010213 704  0.4+  0.2+    010214 151  0.3-  0.1-    010411 413  0.2-  0.2-
    010213 704  0.4-  0.6-    010214 151  0.2-  0.1-    010411 413  0.2-  0.3-
    010213 704  0.1-  0.3+    010214 151  0.0   0.1-    010412 413  0.1+  0.2-
    010213 704  0.2-  0.0     010214 151  0.2-  0.0     010412 413  0.1+  0.3-
    010213 704  0.2-  0.2+    010214 621  0.0   0.0     010412 413  0.1+  0.2-
    010213 104  0.4+  0.0     010214 587  0.2-  0.4-    010413 413  0.2+  0.3+
    010213 104  0.4+  0.1-    010214 621  0.1-  0.1-    010413 413  0.1+  0.2+
    010213 104  0.3+  0.0     010214 587  0.1-  0.5-    010413 413  0.0   0.2+
    010213 104  0.0   0.4+    010214 621  0.0   0.1-    010603 413  0.6+  0.1-
    010213 621  0.2-  0.1-    010214 621  0.0   0.0     010603 413  0.5+  0.1-
    010213 621  0.2-  0.2-    010214 106  0.3+  0.2-    010603 413  0.1-  0.1+
    010213 621  0.1-  0.1-    010214 106  0.2-  0.1-    020605 413  0.1-  0.1-
    010213 118  0.2+  0.1+    010214 106  0.2-  1.0-    020605 413  0.0   0.0
    010213 118  0.4+  0.8-    010215 621  0.1-  0.1+    020605 413  0.1+  0.0
    010213 118  0.5+  0.6-    010215 621  0.1-  0.1+    020622 413  0.1-  0.2-
    010213 557  0.2+  0.4-    010215 621  0.1-  0.1+    020622 413  0.3+  0.0
    010214 912  1.3+  2.8+    010215 621  0.0   0.1+    020622 413  0.1+  0.1+
    010214 912  0.9+  1.3-    010217 118  0.1+  0.2-
    010214 557  0.2+  0.4+    010217 118  0.1-  0.2+
    
    Ephemeris:
    2001 CD32                a,e,i = 1.81, 0.26, 50                  q = 1.3471
    Date    TT    R. A. (2000) Decl.     Delta      r     Elong.  Phase     V
    2002 06 15    23 01.15   -42 44.6    1.634    2.213   111.1    25.3    20.4
    2002 06 25    22 55.40   -43 03.5    1.510    2.200   119.8    23.6    20.1
    2002 07 05    22 43.56   -43 27.7    1.395    2.184   129.1    21.2    19.9
    2002 07 15    22 24.74   -43 43.2    1.297    2.168   138.9    18.0    19.6
    2002 07 25    21 59.07   -43 28.0    1.220    2.150   148.0    14.5    19.3
    2002 08 04    21 28.51   -42 18.5    1.172    2.131   154.1    12.0    19.1
    2002 08 14    20 57.01   -40 01.1    1.156    2.110   153.2    12.5    19.1
    2002 08 24    20 29.00   -36 43.5    1.174    2.088   145.7    15.8    19.2
    2002 09 03    20 07.28   -32 51.0    1.222    2.065   135.3    20.1    19.4
    2002 09 13    19 52.60   -28 50.7    1.297    2.041   124.3    24.0    19.6
    2002 09 23    19 44.36   -25 01.2    1.390    2.015   113.7    27.1    19.9
    2002 10 03    19 41.40   -21 30.2    1.494    1.988   103.9    29.3    20.0
    2002 10 13    19 42.66   -18 18.3    1.605    1.960    94.9    30.5    20.2
    2002 10 23    19 47.23   -15 22.3    1.716    1.931    86.6    31.0    20.3
    2002 11 02    19 54.37   -12 37.9    1.824    1.901    78.9    30.8    20.4
    2002 11 12    20 03.60   -10 00.6    1.925    1.870    71.8    30.2    20.5
    2002 11 22    20 14.49   -07 26.3    2.017    1.838    65.3    29.2    20.5
    
    Gareth V. Williams           (C) Copyright 2002 MPC           M.P.E.C. 2002-M24
    

    Read MPEC 2002-M23 Read MPEC 2002-M25


    MPEC number:

    Enter an MPEC number in one of the following forms:

    • 1997-B01 (the full form)
    • J97B01 (the packed version of the full form)
    • B01 (the abbreviated form)